Terminal Aerodrome Forecast
Issued by NWS Memphis, TN

Home | Current Version | Previous Version | Text Only | Print | Product List | Glossary On
Versions: 1 2 3 4 5 6 7 8 9 10 11 12 13 14 15 16 17 18 19 20 21 22 23 24 25 26 27 28
000
FTUS44 KMEG 232300
TAFMEM
TAF
KMEM 232327Z 2400/2424 17007KT P6SM FEW050 BKN150
     FM240300 VRB03KT P6SM FEW150 BKN250
     FM240800 02007KT P6SM BKN020
     FM241600 01009KT P6SM SCT030=

USA.gov is the U.S. government's official web portal to all federal, state and local government web resources and services.